Regional Weather Roundup
Issued by NWS

Home | Current Version | Previous Version | Text Only | Print | Product List | Glossary On
Versions: 1 2 3 4 5 6 7 8 9 10 11 12 13 14 15 16 17 18 19 20 21 22 23 24 25 26 27 28 29 30 31 32 33 34 35 36 37 38 39 40 41 42 43 44 45 46 47 48 49 50
000
ASUS43 KMKX 172200
RWRWI

WISCONSIN REGIONAL WEATHER ROUNDUP
NATIONAL WEATHER SERVICE MILWAUKEE/SULLIVAN WI
400 PM CST FRI NOV 17 2017

NOTE: "FAIR" INDICATES FEW OR NO CLOUDS BELOW 12,000 FEET WITH NO
SIGNIFICANT WEATHER AND/OR OBSTRUCTIONS TO VISIBILITY.

WIZ001-002-006>008-014>016-023>028-172300-
NORTHWEST WISCONSIN

CITY           SKY/WX    TMP DP  RH WIND       PRES   REMARKS
SUPERIOR ARPT  CLOUDY    33  33 100 CALM      29.64F FOG
ASHLAND        MIX PCPN  33  31  92 CALM      29.65S FOG
HAYWARD        LGT SNOW  34  33  96 CALM      29.63F FOG
SIREN          LGT RAIN  34  34  98 SE5       29.61F WCI  30
CUMBERLAND     CLOUDY    32  32 100 SE5       29.63F FOG     WCI  27
RICE LAKE      CLOUDY    35  34  99 SE5       29.65F FOG     WCI  31
CHETEK         CLOUDY    34  34 100 SE3       29.64F FOG
LADYSMITH      DRIZZLE   34  34  98 SE3       29.65F
EAU CLAIRE     CLOUDY    36  36 100 CALM      29.65S FOG
MENOMONIE      CLOUDY    36  36 100 E5        29.63F FOG     WCI  32
NEW RICHMOND   CLOUDY    36  36  99 SE3       29.61F FOG
OSCEOLA        CLOUDY    37  37 100 E3        29.65F FOG
$$

WIZ003>005-009-010-017-018-172300-
NORTH CENTRAL WISCONSIN

CITY           SKY/WX    TMP DP  RH WIND       PRES   REMARKS
MANITOWISH WTR LGT RAIN  32  32 100 S5        29.63F WCI  27
ARBOR VITAE    CLOUDY    34  33  96 SW6       29.64S FOG     WCI  29
WOODRUFF       CLOUDY    34  33  96 SW6       29.64S FOG     WCI  29
RHINELANDER    LGT RAIN  33  33 100 SW6       29.65F FOG     WCI  28
EAGLE RIVER    MIX PCPN  32  32 100 CALM      29.64F VSB 1
LAND O LAKES   CLOUDY    33  33  99 SW3       29.66F FOG
PHILLIPS       DRIZZLE   32  32 100 S7        29.63F WCI  26
TOMAHAWK       RAIN      32  31  98 CALM      29.65F
MEDFORD        DRIZZLE   32  32  99 S5        29.64S WCI  28
MERRILL        LGT RAIN  33  33 100 CALM      29.66F
$$

WIZ029-030-035-036-043>047-172300-
CENTRAL WISCONSIN

CITY           SKY/WX    TMP DP  RH WIND       PRES   REMARKS
WAUSAU         LGT RAIN  34  33  96 SE5       29.64F FOG     WCI  30
MOSINEE        LGT RAIN  34  34 100 SE5       29.66F WCI  30
MARSHFIELD     LGT RAIN  34  33  96 S3        29.64F FOG
STEVENS POINT  DRIZZLE   34  32  93 S10       29.67S WCI  26
WAUPACA        LGT RAIN  39  34  82 S9G16     29.67F WCI  33
WAUTOMA        CLOUDY    37  34  89 S9        29.67F WCI  30
WISC RAPIDS    LGT RAIN  36  34  92 S3        29.67F FOG
CAMP DOUGLAS   CLOUDY    37  36  99 S3        29.65S FOG
$$

WIZ011>013-019>022-031-037>040-048>050-172300-
NORTHEAST WISCONSIN

CITY           SKY/WX    TMP DP  RH WIND       PRES   REMARKS
ANTIGO         MIX PCPN  32  32 100 S6        29.67F WCI  26
SHAWANO        LGT RAIN  38  35  89 S3        29.67F
OCONTO         CLOUDY    39  36  90 S8        29.69F WCI  33
STURGEON BAY   LGT RAIN  41  38  89 S17G29    29.68F
GREEN BAY      CLOUDY    40  36  86 S13       29.69F WCI  32
MANITOWOC      LGT RAIN  41  38  89 S20G26    29.70F
APPLETON       LGT RAIN  37  30  75 S12       29.67F WCI  30
CLINTONVILLE   DRIZZLE   37  32  81 S12       29.67F WCI  30
OSHKOSH        CLOUDY    40  34  79 S14       29.69F WCI  32
$$

WIZ032>034-041-042-053>061-172300-
SOUTHWEST WISCONSIN

CITY           SKY/WX    TMP DP  RH WIND       PRES   REMARKS
LA CROSSE      LGT RAIN  39  38  96 CALM      29.65S FOG
SPARTA         DRIZZLE   36  35  98 CALM      29.66S
VIROQUA        CLOUDY    36  36 100 SE8       29.63S VSB 1   WCI  29
BOSCOBEL       CLOUDY    39  37  92 CALM      29.65F FOG
PRAIRIE DU CHI CLOUDY    38  37  94 E6        29.64S FOG     WCI  33
PLATTEVILLE    CLOUDY    38  38 100 SE12      29.65F WCI  30
$$

WIZ056-057-062-063-064-067-068-172300-
SOUTH CENTRAL WISCONSIN

CITY           SKY/WX    TMP DP  RH WIND       PRES   REMARKS
REEDSBURG      CLOUDY    36  36 100 SE5       29.66S FOG     WCI  32
BARABOO/DELLS  CLOUDY    36  34  94 S12G21    29.66R FOG     WCI  28
LONE ROCK      NOT AVBL
MINERAL POINT  LGT RAIN  37  37 100 SE12G17   29.65F WCI  30
MADISON        CLOUDY    37  35  92 S13G23    29.68F FOG     WCI  29
MIDDLETON      CLOUDY    38  37  94 S12G17    29.69S WCI  31
WATERTOWN      CLOUDY    39  37  93 S12G17    29.69F WCI  31
MONROE         CLOUDY    36  36 100 SE14      29.67S FOG     WCI  27
JANESVILLE     CLOUDY    39  39 100 S14G20    29.70F FOG     WCI  31
$$

WIZ051-052-058>065-066-070>072-172300-
SOUTHEAST WISCONSIN

CITY           SKY/WX    TMP DP  RH WIND       PRES   REMARKS
MILWAUKEE      CLOUDY    43  35  73 S15G23    29.73F
WAUKESHA       CLOUDY    37  32  81 SE14G20   29.73F WCI  29
MILWAUKEE/TIMM CLOUDY    39  30  70 S10       29.73F WCI  32
RACINE         CLOUDY    42  35  76 S20G33    29.76F
BURLINGTON     MOCLDY    42  39  86 S10G21    29.73F
KENOSHA        CLOUDY    41  35  79 S20G28    29.75F
FOND DU LAC    LGT RAIN  40  32  73 S16G24    29.68F WCI  31
SHEBOYGAN      CLOUDY    41  38  89 S21G28    29.71F
WEST BEND      CLOUDY    37  34  87 S10G18    29.71F WCI  30
JUNEAU         DRIZZLE   38  33  84 S14G20    29.70F WCI  30
$$

LSZ147-162-172300-
LAKE SUPERIOR

STATION/POSITION TIME  TEMP    WIND        PRES    WAVE
                       AIR SEA DIR/SP/G            HT/PER
                 (UTC) (F)     (DEG/KT/KT) (MB)    (FT/S)
DEVILS ISLAND    2100   35     210/  7/ 10 1004.6S
SAXON HARBOR     2140   34     190/  4/  8 1003.7F
$$

LMZ867-665-643>646-172300-
LAKE MICHIGAN

STATION/POSITION TIME  TEMP    WIND        PRES    WAVE
                       AIR SEA DIR/SP/G            HT/PER
                 (UTC) (F)     (DEG/KT/KT) (MB)    (FT/S)
N MID LAKE BUOY  2050   42 49  180/ 25/ 29 1008.5F   8/ 8
NORTHPORT PIER   2140   42     160/ 15/ 22 1005.8F
SHEBOYGAN LAKESH 2100   41     170/ 27/ 30 1007.3F
PORT WASHINGTON  2140   42     180/ 14/ 19 1008.1F
MILWAUKEE LAKESH 2130   43     170/ 14/ 16   N/A
S MID LAKE BUOY  2050   46 50  140/ 23/ 27 1009.9F   6/ 6
KENOSHA   LAKESH 2100   43     170/ 24/ 28 1008.5
$$

TC  - TEMPERATURE IN CELSIUS
VSB - VISIBILITY IN STATUTE MILES
WCI - WIND CHILL INDEX
HX  - HEAT INDEX





USA.gov is the U.S. government's official web portal to all federal, state and local government web resources and services.